sat.trackr.live / text

‹ back to catalog

STARLINK-31704

NORAD 59586 · 2024-076Y

PAYLOAD ACTIVE UNKNOWN

§ Identity

Operator
Country
US
Launch date
2024-04-23
Launch site
AFETR
Launch vehicle
Mass (kg)
RCS (m²)

Purposes: comms

External: N2YO · Heavens-Above · Gunter

§ Orbital elements

Epoch: 2026-09-21T16:47:06.857952Z

Period
91.58 min
Inclination
42.9824°
Eccentricity
0.0025916
Mean motion
15.72418330 rev/d
Perigee alt
334.5 km
Apogee alt
369.4 km
Semi-major
6,730.1 km
B*
5.7746e-4
RAAN
257.6882°
Arg perigee
118.0374°
Mean anomaly
242.3120°
Rev number
13,743

§ Raw data

STARLINK-317041 59586U 24076Y   26264.69938493  .00081134  00000+0  57746-3 0  99912 59586  42.9824 257.6882 0025916 118.0374 242.3120 15.72418330137435

JSON: /api/v1/satellites/59586 · /tle

For live sub-satellite position, see the globe view (requires WebGL).

§ Visibility from observer

Set your observer location to see the next 7 days of passes ≥ 10°. The values pass through the URL so the page stays shareable.

No JS? Fill the form by hand. The geolocation button needs JavaScript.